Miscellaneous Local Product
Issued by NWS Hastings, NE

Home | Current Version | Previous Version | Graphics & Text | Print | Product List | Glossary On
Versions: 1 2 3 4 5 6 7 8 9 10 11 12 13 14 15 16 17 18 19 20 21 22 23 24 25 26 27 28 29 30 31 32 33 34 35 36 37 38 39 40 41 42 43 44 45 46 47 48 49 50
188
AXUS43 KGID 182002
MISGRI

GID CWA HOURLY WEATHER ROUNDUP
NATIONAL WEATHER SERVICE HASTINGS NE
300 PM CDT FRI AUG 18 2017

NOTE: "FAIR" INDICATES FEW OR NO CLOUDS BELOW 12,000 FEET WITH NO
SIGNIFICANT WEATHER AND/OR OBSTRUCTIONS TO VISIBILITY.

...SOUTH CENTRAL NEBRASKA...

CITY           SKY/WX    TMP DP  RH WIND       PRES   REMARKS
GRAND ISLAND   SUNNY     85  62  46 NW6       29.97S
HASTINGS       SUNNY     84  62  47 N8        29.99S
KEARNEY        SUNNY     85  61  44 N6        29.99S
ORD            SUNNY     85  55  35 NW9       29.95F
YORK           SUNNY     81  64  57 CALM      29.96S
AURORA         SUNNY     82  65  56 W3        29.96S
LEXINGTON      SUNNY     85  57  37 N3        30.00F
HOLDREGE       SUNNY     82  62  51 N5        30.00S
HEBRON         SUNNY     86  65  49 W5        29.95S

...NEBRASKA PANHANDLE...

CITY           SKY/WX    TMP DP  RH WIND       PRES   REMARKS
CHADRON        SUNNY     87  39  18 NW10      30.03F
ALLIANCE       SUNNY     84  42  22 W8        30.08F
SCOTTSBLUFF    SUNNY     87  41  19 VRB5      30.09F
SIDNEY         SUNNY     87  37  17 VRB7      30.13F

...WESTERN AND NORTH CENTRAL NEBRASKA...

CITY           SKY/WX    TMP DP  RH WIND       PRES   REMARKS
VALENTINE      SUNNY     87  47  24 NW10G20   30.00R
AINSWORTH      SUNNY     82  60  45 N12       29.99S
ONEILL         SUNNY     82  64  54 N9        29.95F
BROKEN BOW     SUNNY     89  51  27 NW7       29.99F
IMPERIAL       SUNNY     86  49  27 NE5       30.07F
NORTH PLATTE   SUNNY     88  50  27 MISG      30.02F
MCCOOK         SUNNY     88  57  34 N6        30.02F

...EASTERN NEBRASKA...

CITY           SKY/WX    TMP DP  RH WIND       PRES   REMARKS
NORFOLK        SUNNY     81  63  54 W8        29.91S
SO SIOUX CITY  SUNNY     81  63  54 SW3       29.89F
TEKAMAH        SUNNY     82  64  54 W3        29.90F
COLUMBUS       SUNNY     82  67  60 VRB7      29.94F
ALBION         SUNNY     84  63  49 W3        29.94F
OMAHA EPPLEY   PTSUNNY   87  59  38 W7        29.90F
OFFUTT AFB     SUNNY     88  58  36 SW13      29.90F
MILLARD        SUNNY     85  64  49 W6        29.91F
LINCOLN        SUNNY     85  65  51 N7        29.93F
NEBRASKA CITY  MOSUNNY   84  64  50 NW5       29.93S
BEATRICE       SUNNY     85  66  51 NW6       29.94S
FALLS CITY     SUNNY     87  64  46 N8        29.90F

...NORTHERN KANSAS...

CITY           SKY/WX    TMP DP  RH WIND       PRES   REMARKS
GOODLAND       SUNNY     86  55  34 N13       30.09S
HILL CITY      SUNNY     87  64  46 N8        30.00S
NORTON         CLEAR     88  48  25 NE10      30.00S
PHILLIPSBURG   SUNNY     88  59  37 N6        29.98S
SMITH CENTER   MOSUNNY   84  64  51 NW8       29.98S
HAYS           SUNNY     91  64  40 W10       29.96  HX  92
RUSSELL        SUNNY     90  61  37 NW8       29.95F HX  90
CONCORDIA      SUNNY     87  67  51 NW12G17   29.94F HX  90
SALINA         SUNNY     94  62  34 W14G23    29.94F HX  94
TOPEKA         SUNNY     90  64  42 W9        29.91F HX  91



USA.gov is the U.S. government's official web portal to all federal, state and local government web resources and services.